FW7734 Weather Reports


Display with metric or nautical units.
time (UTC)temp
F
wind
direction
speed
MPH
gust
MPH
rain 1hr
in
rain 24hr
in
rain mn
in
humidity
%
barometer
mb
20260509224049 53 94 0.0 1.0 0.00 0.89 0.89 97 1009.5
20260509223546 54 132 1.0 1.0 0.00 0.89 0.89 97 1009.6
20260509223044 54 150 1.0 2.0 0.00 0.89 0.89 97 1009.6
20260509222539 54 142 3.0 3.0 0.00 0.89 0.89 97 1009.4
20260509222036 54 117 0.0 1.0 0.00 0.89 0.89 98 1009.4
20260509221531 53 171 2.0 2.0 0.00 0.89 0.89 98 1009.5
20260509221027 53 119 1.0 2.0 0.00 0.89 0.89 98 1009.7
20260509220523 53 118 2.0 2.0 0.00 0.89 0.89 98 1009.5
20260509220020 53 198 2.0 2.0 0.00 0.89 0.89 98 1009.6
20260509215515 53 110 3.0 3.0 0.00 0.89 0.89 99 1009.8
20260509215012 53 184 3.0 3.0 0.00 0.89 0.89 99 1009.8
20260509214510 52 138 3.0 3.0 0.00 0.89 0.89 99 1009.8
20260509214007 52 159 2.0 2.0 0.00 0.89 0.89 99 1010.0
20260509213502 52 143 3.0 3.0 0.00 0.89 0.89 99 1010.1
20260509212959 51 118 1.0 2.0 0.00 0.89 0.89 99 1010.2
20260509212457 51 107 3.0 3.0 0.00 0.89 0.89 99 1010.1
20260509211953 51 94 3.0 5.0 0.00 0.89 0.89 99 1010.2
20260509211449 51 128 2.0 3.0 0.00 0.89 0.89 99 1010.2
20260509210946 51 127 3.0 5.0 0.00 0.89 0.89 99 1010.4
20260509210443 51 173 3.0 5.0 0.00 0.89 0.89 99 1010.4
20260509205938 51 196 2.0 3.0 0.00 0.89 0.89 99 1010.3
20260509205433 51 114 3.0 3.0 0.00 0.89 0.89 99 1010.1
20260509204929 51 113 4.0 6.0 0.00 0.89 0.89 99 1010.1
20260509204425 52 143 2.0 3.0 0.07 0.89 0.89 99 1010.4
20260509203923 52 191 5.0 6.0 0.07 0.89 0.89 99 1010.3
20260509203418 51 104 2.0 2.0 0.00 0.88 0.88 99 1010.2
20260509202916 51 113 7.0 9.0 0.00 0.88 0.88 99 1010.5
20260509202411 52 196 3.0 5.0 0.00 0.88 0.88 99 1010.5
20260509201907 51 135 4.0 5.0 0.00 0.88 0.88 99 1010.5
20260509201402 51 92 3.0 3.0 0.00 0.88 0.88 99 1010.4
20260509200900 51 211 4.0 6.0 0.05 0.88 0.88 99 1010.5
20260509200359 51 115 3.0 3.0 0.05 0.88 0.88 99 1010.5
20260509195857 51 147 4.0 5.0 0.00 0.87 0.87 99 1010.6
20260509195356 51 126 4.0 6.0 0.00 0.87 0.87 99 1010.6
20260509194856 51 108 4.0 5.0 0.07 0.87 0.87 99 1010.7
20260509194353 51 124 3.0 3.0 0.12 0.87 0.87 99 1011.0
20260509193849 51 181 4.0 6.0 0.05 0.86 0.86 99 1010.8
20260509193344 51 154 2.0 2.0 0.00 0.85 0.85 99 1010.8
20260509192840 51 131 7.0 9.0 0.12 0.85 0.85 99 1011.1
20260509192336 51 141 7.0 8.0 0.05 0.84 0.84 99 1011.0
20260509191832 51 199 8.0 10.0 0.00 0.83 0.83 99 1010.8
20260509191328 51 147 5.0 6.0 0.00 0.83 0.83 99 1011.0
20260509190824 51 142 5.0 7.0 0.00 0.83 0.83 99 1011.0
20260509190321 51 118 5.0 6.0 0.00 0.83 0.83 99 1010.8
20260509185819 51 132 4.0 7.0 0.00 0.83 0.83 99 1010.8
20260509185314 51 184 7.0 8.0 0.07 0.83 0.83 99 1011.2
20260509184812 51 142 5.0 7.0 0.07 0.83 0.83 99 1011.2
20260509184310 51 153 6.0 7.0 0.05 0.82 0.82 99 1011.0
20260509183806 51 112 3.0 3.0 0.05 0.82 0.82 99 1011.3
20260509183301 51 219 3.0 6.0 0.00 0.81 0.81 99 1011.0
20260509182756 51 162 5.0 6.0 0.07 0.81 0.81 99 1011.1
20260509182254 51 151 4.0 5.0 0.07 0.81 0.81 99 1011.1
20260509181751 51 139 6.0 8.0 0.05 0.80 0.80 99 1010.7
20260509181249 51 123 7.0 9.0 0.12 0.80 0.80 99 1011.1
20260509180746 51 139 8.0 10.0 0.14 0.79 0.79 99 1011.1
20260509180242 51 124 6.0 7.0 0.12 0.78 0.78 99 1011.1
20260509175738 51 183 6.0 9.0 0.12 0.77 0.77 99 1011.0
20260509175235 51 108 2.0 2.0 0.12 0.76 0.76 99 1010.8
20260509174731 51 128 3.0 3.0 0.07 0.74 0.74 99 1010.8
20260509174226 51 145 5.0 7.0 0.12 0.74 0.74 99 1010.8
20260509173723 50 136 3.0 3.0 0.12 0.73 0.73 99 1010.8
20260509173219 50 109 5.0 6.0 0.07 0.72 0.72 99 1011.2
20260509172715 50 105 3.0 3.0 0.05 0.71 0.71 99 1011.0
20260509172211 50 179 1.0 2.0 0.12 0.71 0.71 99 1011.2
20260509171707 50 155 4.0 6.0 0.07 0.70 0.70 99 1010.8
20260509171203 50 154 3.0 5.0 0.05 0.69 0.69 99 1011.0
20260509170700 50 127 4.0 5.0 0.12 0.69 0.69 99 1010.8
20260509170156 50 96 1.0 1.0 0.12 0.68 0.68 99 1011.0
20260509165655 50 176 5.0 6.0 0.12 0.67 0.67 99 1011.0
20260509165150 50 105 2.0 2.0 0.14 0.66 0.66 99 1011.3
20260509164647 50 126 2.0 3.0 0.07 0.65 0.65 99 1011.4
20260509164142 50 129 3.0 3.0 0.00 0.64 0.64 99 1011.4
20260509163640 50 128 4.0 5.0 0.05 0.64 0.64 99 1011.3
20260509163136 50 151 2.0 2.0 0.00 0.63 0.63 99 1011.2
20260509162633 50 174 5.0 7.0 0.00 0.63 0.63 99 1011.2
20260509162129 50 116 1.0 1.0 0.00 0.63 0.63 99 1011.3
20260509161625 50 183 2.0 2.0 0.07 0.63 0.63 99 1011.4
20260509161120 50 197 5.0 6.0 0.07 0.63 0.63 99 1011.3
20260509160617 50 137 4.0 5.0 0.00 0.62 0.62 99 1011.4
20260509160112 50 139 1.0 2.0 0.05 0.62 0.62 99 1011.2
20260509155609 50 139 3.0 3.0 0.05 0.62 0.62 99 1011.2
20260509155105 50 143 4.0 5.0 0.07 0.61 0.61 99 1011.5
20260509154600 50 121 2.0 2.0 0.07 0.61 0.61 99 1011.6
20260509154058 50 153 3.0 6.0 0.05 0.60 0.60 99 1011.6
20260509153555 50 193 3.0 3.0 0.05 0.60 0.60 99 1011.8
20260509153052 50 112 0.0 1.0 0.07 0.59 0.59 99 1012.0
20260509152548 50 123 1.0 1.0 0.07 0.59 0.59 99 1011.9
20260509152045 50 142 1.0 1.0 0.05 0.58 0.58 99 1012.0
20260509151541 50 138 2.0 2.0 0.12 0.58 0.58 99 1012.2
20260509151039 50 107 0.0 1.0 0.07 0.57 0.57 99 1012.1
20260509150537 50 100 0.0 0.0 0.05 0.56 0.56 99 1012.1
20260509150035 49 101 0.0 1.0 0.12 0.56 0.56 99 1012.1
20260509145530 49 161 2.0 2.0 0.19 0.55 0.55 99 1012.2
20260509145025 49 137 1.0 2.0 0.12 0.54 0.54 99 1012.2
20260509144523 49 109 0.0 1.0 0.07 0.52 0.52 99 1012.3
20260509144020 50 111 0.0 1.0 0.19 0.52 0.52 99 1012.3
20260509143517 49 102 0.0 0.0 0.07 0.50 0.50 99 1012.4
20260509143015 49 116 1.0 2.0 0.05 0.49 0.49 99 1012.5
20260509142510 49 122 1.0 1.0 0.12 0.49 0.49 99 1012.3
20260509142005 49 121 2.0 2.0 0.12 0.48 0.48 99 1012.6
20260509141502 49 102 0.0 1.0 0.12 0.47 0.47 99 1012.3
20260509140959 49 183 3.0 3.0 0.12 0.46 0.46 99 1012.2
20260509140455 49 140 1.0 2.0 0.12 0.45 0.45 99 1012.4
20260509135954 49 124 1.0 2.0 0.12 0.44 0.44 99 1012.3
20260509135451 50 109 0.0 0.0 0.05 0.43 0.43 99 1012.1
20260509134948 49 104 0.0 0.0 0.07 0.42 0.42 99 1012.0
20260509134445 49 102 0.0 0.0 0.07 0.42 0.42 99 1012.0
20260509133943 49 122 1.0 1.0 0.00 0.41 0.41 99 1011.9
20260509133439 49 140 1.0 1.0 0.07 0.41 0.41 99 1012.0
20260509132937 49 119 1.0 1.0 0.07 0.41 0.41 99 1011.8
20260509132435 49 120 1.0 1.0 0.05 0.40 0.40 99 1011.8
20260509131932 49 131 1.0 2.0 0.05 0.40 0.40 99 1011.9
20260509131429 49 99 0.0 0.0 0.00 0.39 0.39 99 1011.8
20260509130926 48 99 0.0 0.0 0.07 0.39 0.39 99 1012.1
20260509130421 49 99 0.0 0.0 0.07 0.39 0.39 99 1012.1
20260509125918 48 107 0.0 0.0 0.00 0.38 0.38 99 1012.3
20260509125415 48 97 0.0 1.0 0.05 0.38 0.38 99 1012.0
20260509124911 48 92 0.0 0.0 0.05 0.38 0.38 99 1012.2
20260509124408 48 93 0.0 0.0 0.00 0.37 0.37 99 1012.1
20260509123906 48 77 1.0 1.0 0.07 0.37 0.37 99 1012.2
20260509123403 48 79 0.0 0.0 0.07 0.37 0.37 99 1012.2
20260509122858 48 56 1.0 1.0 0.00 0.36 0.36 99 1012.0
20260509122355 48 79 1.0 1.0 0.05 0.36 0.36 99 1012.2
20260509121852 48 89 0.0 0.0 0.05 0.36 0.36 99 1012.1
20260509121349 48 90 0.0 0.0 0.00 0.35 0.35 99 1012.2
20260509120848 48 90 0.0 0.0 0.00 0.35 0.35 99 1012.1
20260509120345 48 91 0.0 0.0 0.00 0.35 0.35 99 1012.1
20260509115843 48 93 0.0 0.0 0.00 0.35 0.35 99 1012.2
20260509115340 48 97 0.0 0.0 0.00 0.35 0.35 99 1012.3
20260509114838 47 97 0.0 0.0 0.00 0.35 0.35 99 1012.3
20260509114336 47 98 0.0 0.0 0.00 0.35 0.35 99 1012.4
20260509113835 47 101 0.0 0.0 0.00 0.35 0.35 99 1012.3
20260509113331 47 102 0.0 0.0 0.00 0.35 0.35 99 1012.2
20260509112828 47 112 1.0 2.0 0.07 0.35 0.35 99 1012.4
20260509112325 47 93 0.0 0.0 0.07 0.35 0.35 99 1012.3
20260509111822 47 86 0.0 0.0 0.00 0.34 0.34 99 1012.5
20260509111319 46 83 0.0 0.0 0.00 0.34 0.34 99 1012.5
20260509110817 46 83 0.0 0.0 0.00 0.34 0.34 99 1012.6
20260509110313 46 76 0.0 0.0 0.00 0.34 0.34 99 1012.5
20260509105811 46 84 0.0 0.0 0.00 0.34 0.34 99 1012.4
20260509105309 46 98 0.0 0.0 0.00 0.34 0.34 99 1012.5
20260509104805 46 85 0.0 0.0 0.05 0.34 0.34 99 1012.4
20260509104302 46 80 0.0 0.0 0.00 0.33 0.33 99 1012.7
20260509103800 46 78 0.0 0.0 0.07 0.33 0.33 99 1012.6
20260509103257 46 78 0.0 0.0 0.07 0.33 0.33 99 1012.5
20260509102756 46 88 0.0 0.0 0.00 0.32 0.32 99 1012.3
20260509102253 46 95 0.0 0.0 0.00 0.32 0.32 99 1012.4
20260509101749 46 99 0.0 0.0 0.00 0.32 0.32 99 1012.3
20260509101245 46 102 1.0 1.0 0.05 0.32 0.32 99 1012.3
20260509100743 46 98 0.0 0.0 0.05 0.32 0.32 99 1012.4
20260509100240 46 103 0.0 1.0 0.07 0.31 0.31 99 1012.6
20260509095736 46 94 0.0 1.0 0.07 0.31 0.31 99 1012.8
20260509095234 46 88 1.0 1.0 0.05 0.30 0.30 99 1012.7
20260509094731 46 95 0.0 1.0 0.14 0.29 0.29 99 1012.6
20260509094227 46 91 0.0 1.0 0.14 0.29 0.29 99 1012.5
20260509093725 46 89 0.0 0.0 0.05 0.27 0.27 99 1012.3
20260509093222 46 95 1.0 2.0 0.17 0.27 0.27 99 1012.3
20260509092721 46 98 1.0 1.0 0.19 0.26 0.26 99 1012.4
20260509092218 46 116 2.0 2.0 0.12 0.24 0.24 99 1012.6
20260509091716 46 129 1.0 1.0 0.12 0.23 0.23 99 1012.5
20260509091212 46 105 1.0 1.0 0.12 0.22 0.22 99 1012.3
20260509090710 46 110 1.0 2.0 0.12 0.21 0.21 99 1012.4
20260509090207 46 96 1.0 1.0 0.07 0.20 0.20 99 1012.4
20260509085705 45 131 1.0 2.0 0.00 0.19 0.19 99 1012.7
20260509085201 45 144 3.0 3.0 0.00 0.19 0.19 99 1012.7
20260509084658 46 95 0.0 0.0 0.00 0.19 0.19 99 1012.5
20260509084154 45 96 0.0 0.0 0.00 0.19 0.19 99 1012.3
20260509083653 45 99 0.0 0.0 0.05 0.19 0.19 99 1012.5
20260509083148 45 106 0.0 0.0 0.05 0.19 0.19 99 1012.5
20260509082646 45 100 0.0 0.0 0.00 0.18 0.18 99 1012.6
20260509082142 46 100 0.0 0.0 0.00 0.18 0.18 99 1012.8
20260509081639 46 101 0.0 0.0 0.07 0.18 0.18 99 1012.8
20260509081137 46 90 0.0 1.0 0.05 0.17 0.17 99 1012.9
20260509080635 46 93 1.0 1.0 0.05 0.17 0.17 99 1012.8
20260509080132 46 91 3.0 5.0 0.07 0.16 0.16 99 1013.3
20260509075630 45 91 1.0 1.0 0.07 0.16 0.16 99 1013.0
20260509075128 45 102 0.0 0.0 0.07 0.15 0.15 99 1013.1
20260509074624 45 102 0.0 0.0 0.07 0.15 0.15 99 1012.9
20260509074121 45 105 2.0 2.0 0.00 0.14 0.14 99 1013.1
20260509073618 46 100 0.0 0.0 0.05 0.14 0.14 99 1013.1
20260509073114 46 106 1.0 2.0 0.12 0.14 0.14 99 1013.1
20260509072611 45 99 2.0 3.0 0.07 0.13 0.13 99 1013.0
20260509072108 45 98 0.0 0.0 0.05 0.12 0.12 99 1013.4
20260509071604 45 97 0.0 0.0 0.07 0.11 0.11 99 1013.3
20260509071102 45 91 1.0 1.0 0.12 0.11 0.11 99 1013.2
20260509070559 45 93 2.0 2.0 0.05 0.10 0.10 99 1013.4
20260509070055 45 95 0.0 1.0 0.07 0.09 0.09 99 1013.4
20260509065550 45 102 0.0 1.0 0.12 0.09 0.09 99 1013.0
20260509065047 45 97 2.0 2.0 0.05 0.08 0.08 99 1013.0
20260509064544 45 99 1.0 1.0 0.07 0.07 0.07 99 1013.1
20260509064043 45 95 0.0 1.0 0.12 0.07 0.07 99 1013.3
20260509063537 44 96 0.0 1.0 0.05 0.06 0.06 99 1013.2
20260509063035 44 105 1.0 1.0 0.07 0.05 0.05 99 1013.4
20260509062532 44 121 2.0 2.0 0.07 0.05 0.05 99 1013.4
20260509062030 44 125 2.0 2.0 0.05 0.04 0.04 99 1013.3
20260509061526 44 85 0.0 0.0 0.05 0.04 0.04 99 1013.2
20260509061024 44 80 0.0 0.0 0.07 0.03 0.03 99 1012.9
20260509060521 44 80 0.0 0.0 0.07 0.03 0.03 99 1012.9
20260509060017 44 80 1.0 1.0 0.00 0.02 0.02 98 1013.2
20260509055512 44 86 1.0 1.0 0.00 0.02 0.02 98 1013.2
20260509055009 44 86 0.0 0.0 0.07 0.02 0.02 98 1013.1
20260509054505 44 82 0.0 0.0 0.07 0.02 0.02 98 1013.4
20260509054004 44 82 0.0 0.0 0.05 0.01 0.01 98 1013.3
20260509053502 44 77 1.0 1.0 0.05 0.01 0.01 98 1013.4
20260509052958 43 91 0.0 1.0 0.00 0.00 0.00 97 1013.4
20260509052456 43 92 0.0 0.0 0.00 0.00 0.00 97 1013.4
20260509051954 43 83 0.0 1.0 0.00 0.00 0.00 97 1013.6
20260509051451 43 64 0.0 0.0 0.00 0.00 0.00 97 1013.5
20260509050948 43 60 1.0 2.0 0.00 0.00 0.00 97 1013.5
20260509050445 43 62 2.0 3.0 0.00 0.00 0.00 97 1013.7
20260509045941 43 63 2.0 5.0 0.00 0.00 0.00 97 1013.3
20260509045439 43 60 1.0 1.0 0.00 0.00 0.00 97 1013.4
20260509044935 43 59 1.0 1.0 0.00 0.00 0.00 97 1013.4
20260509044434 43 48 3.0 3.0 0.00 0.00 0.00 97 1013.4
20260509043931 43 73 0.0 0.0 0.00 0.00 0.00 97 1013.4
20260509043426 43 73 0.0 0.0 0.00 0.00 0.00 97 1013.5
20260509042922 43 73 0.0 0.0 0.00 0.00 0.00 97 1013.6
20260509042419 43 73 0.0 0.0 0.00 0.00 0.00 97 1014.1
20260509041915 43 73 0.0 0.0 0.00 0.00 0.00 97 1013.7
20260509041412 42 73 1.0 1.0 0.00 0.00 0.00 97 1013.9
20260509040910 42 73 0.0 0.0 0.00 0.00 0.00 96 1013.9
20260509040408 42 73 0.0 0.0 0.00 0.00 0.00 96 1013.6
20260509035905 43 73 0.0 0.0 0.00 0.04 0.04 96 1013.7
20260509035402 43 73 0.0 1.0 0.00 0.04 0.04 96 1013.5
20260509034858 43 73 0.0 1.0 0.00 0.04 0.04 96 1013.6
20260509034355 42 73 0.0 0.0 0.00 0.04 0.04 96 1013.7
20260509033852 42 73 0.0 0.0 0.00 0.04 0.04 96 1013.7
20260509033350 42 73 0.0 0.0 0.00 0.04 0.04 96 1013.5
20260509032846 42 73 0.0 0.0 0.00 0.04 0.04 96 1013.5
20260509032343 43 73 0.0 0.0 0.00 0.04 0.04 96 1013.4
20260509031842 42 73 0.0 2.0 0.00 0.04 0.04 96 1013.7
20260509031338 42 73 0.0 0.0 0.00 0.04 0.04 96 1013.5
20260509030836 42 73 0.0 1.0 0.00 0.04 0.04 96 1013.9
20260509030334 42 73 0.0 0.0 0.00 0.04 0.04 96 1013.7
20260509025831 42 73 0.0 0.0 0.00 0.04 0.04 96 1013.5
20260509025326 42 73 1.0 1.0 0.00 0.04 0.04 95 1013.9
20260509024821 42 73 0.0 0.0 0.00 0.04 0.04 95 1013.7
20260509024318 43 73 0.0 0.0 0.00 0.04 0.04 95 1013.4
20260509023815 43 73 0.0 0.0 0.00 0.04 0.04 95 1013.6
20260509023312 43 73 1.0 1.0 0.00 0.04 0.04 94 1013.4
20260509022809 44 73 2.0 2.0 0.00 0.04 0.04 94 1013.4
20260509022307 44 74 0.0 0.0 0.00 0.04 0.04 93 1013.6
20260509021803 44 73 0.0 0.0 0.00 0.04 0.04 93 1013.5
20260509021300 44 73 0.0 1.0 0.00 0.04 0.04 93 1013.7
20260509020758 44 73 0.0 1.0 0.00 0.04 0.04 93 1013.7
20260509020255 45 74 1.0 2.0 0.00 0.04 0.04 93 1013.9
20260509015753 45 74 0.0 0.0 0.00 0.04 0.04 92 1013.6
20260509015251 45 74 0.0 0.0 0.00 0.04 0.04 92 1013.5
20260509014747 45 74 0.0 0.0 0.00 0.04 0.04 91 1013.5
20260509014244 45 73 0.0 1.0 0.00 0.04 0.04 91 1013.6
20260509013741 46 73 1.0 1.0 0.00 0.04 0.04 91 1013.5
20260509013236 45 67 1.0 1.0 0.00 0.04 0.04 90 1013.5
20260509012733 45 79 1.0 1.0 0.00 0.04 0.04 90 1013.4
20260509012230 46 80 0.0 0.0 0.00 0.04 0.04 90 1013.3
20260509011727 46 79 0.0 0.0 0.00 0.04 0.04 89 1013.3
20260509011225 46 79 1.0 1.0 0.00 0.04 0.04 90 1013.2
20260509010723 46 80 0.0 0.0 0.00 0.04 0.04 90 1013.5
20260509010219 46 79 0.0 0.0 0.00 0.04 0.04 89 1013.2
20260509005716 46 77 1.0 1.0 0.00 0.04 0.04 89 1013.2
20260509005213 45 97 0.0 1.0 0.00 0.04 0.04 89 1013.2
20260509004708 46 97 0.0 0.0 0.00 0.04 0.04 88 1012.7
20260509004206 46 97 0.0 0.0 0.00 0.04 0.04 87 1012.9
20260509003704 47 97 0.0 0.0 0.00 0.04 0.04 87 1012.9
20260509003201 48 97 0.0 0.0 0.00 0.04 0.04 85 1012.7
20260509002658 49 98 0.0 0.0 0.00 0.04 0.04 82 1012.8
20260509002155 50 98 0.0 0.0 0.00 0.04 0.04 78 1012.8
20260509001653 50 96 2.0 2.0 0.00 0.04 0.04 77 1012.7
20260509001148 50 111 0.0 1.0 0.00 0.04 0.04 77 1012.6
20260509000647 50 113 0.0 0.0 0.00 0.04 0.04 76 1012.8
20260509000144 51 109 0.0 1.0 0.00 0.04 0.04 75 1012.7
20260508235641 51 96 0.0 1.0 0.00 0.04 0.04 74 1012.5
20260508235137 51 101 1.0 3.0 0.00 0.04 0.04 73 1012.5
20260508234635 51 104 1.0 2.0 0.00 0.04 0.04 71 1012.5
20260508234131 52 116 1.0 2.0 0.00 0.04 0.04 70 1012.3
20260508233630 52 110 0.0 0.0 0.00 0.04 0.04 69 1012.2
20260508233128 52 101 2.0 3.0 0.00 0.04 0.04 68 1012.0
20260508232625 53 146 2.0 3.0 0.00 0.04 0.04 67 1012.2
20260508232121 53 129 3.0 7.0 0.00 0.04 0.04 66 1012.2
20260508231619 53 123 3.0 5.0 0.00 0.04 0.04 64 1012.0
20260508231116 53 157 4.0 5.0 0.00 0.04 0.04 62 1012.1
20260508230612 54 152 3.0 3.0 0.00 0.04 0.04 61 1012.1
20260508230109 53 133 2.0 3.0 0.00 0.04 0.04 61 1012.0
20260508225607 53 115 1.0 2.0 0.00 0.04 0.04 64 1012.0
20260508225103 53 122 4.0 5.0 0.00 0.04 0.04 60 1011.9
20260508224601 54 115 3.0 3.0 0.00 0.04 0.04 61 1012.1